Meteo Giornale » Osservazioni meteo Italia » Palermo-Punta Raisi

ore: 04:50 - Osservazioni Meteo Palermo-Punta Raisi
Lat. 38° 11' N Lon. 13° 6' E Alt. 21 metri s.l.m.

nuvoloso Europe/Rome

16 °C

Nuvoloso

Temp. 24 Ore

13 °C

17 °C

Nord-Ovest

38.8 Km/h

Dew point 10 °C

Umidità 67 %

Visibilità  10 Km

Il sole sorge alle ore 07:14

Il sole tramonta alle ore 16:49

Data e Ora Cielo e Fenomeni T °C DP °C Um. % Pres. hPa Vis. km Vento km/h
Oggi h: 04:50 nuvoloso Nuvoloso 16 10 67 1001 10 NO 38.8
Oggi h: 04:20 nuvoloso Nuvoloso 16 10 67 1000 10 NO 38.8
Oggi h: 03:50 nuvoloso Nuvoloso 16 9 63 1000 10 NO 46.3
Oggi h: 03:20 nuvoloso Nuvoloso 16 9 63 1000 10 NO 46.3
Oggi h: 02:50 nuvoloso Nuvoloso 17 9 59 1000 10 NO 48.1
Oggi h: 02:20 nuvoloso Nuvoloso 17 9 59 999 10 O/NO 46.3
Oggi h: 01:50 coperto_pioggia Pioggia Debole 16 10 67 999 10 O/NO 51.8
Oggi h: 01:20 nuvoloso_piovaschi Debole Rovescio di Pioggia 15 10 72 999 7 O/NO 62.9
Oggi h: 00:50 coperto_pioggia Pioggia Debole 17 10 63 998 10 O 61.1
Oggi h: 00:20 nuvoloso Nuvoloso 17 12 72 998 10 O 62.9
Ieri h: 23:50 nuvoloso Nuvoloso 17 11 67 997 10 O 59.2
Ieri h: 23:20 nuvoloso Nuvoloso 17 10 63 997 10 O 59.2
Ieri h: 22:50 nuvoloso Nuvoloso 17 11 67 997 10 O 61.1
Ieri h: 22:20 nuvoloso Nuvoloso 17 11 67 997 10 O 64.8
Ieri h: 21:50 nuvoloso Nuvoloso 17 12 72 996 10 O 59.2
Ieri h: 21:20 nuvoloso_piovaschi Rovescio di Pioggia 17 12 72 997 10 O 55.5
Ieri h: 20:50 molto_nuvoloso Molto Nuvoloso 17 14 82 997 10 O 50
Ieri h: 20:20 nuvoloso Nuvoloso 17 14 82 997 10 O 51.8
Ieri h: 19:50 nuvoloso Nuvoloso 17 14 82 998 10 O 53.7
Ieri h: 19:20 nuvoloso Nuvoloso 17 13 77 998 10 O 55.5
Ieri h: 18:50 nuvoloso Nuvoloso 17 13 77 998 10 O 50
Ieri h: 18:20 nuvoloso Nuvoloso 17 14 82 998 10 O/SO 51.8
Ieri h: 17:50 molto_nuvoloso Molto Nuvoloso 17 13 77 998 10 O 50
Ieri h: 17:20 molto_nuvoloso Molto Nuvoloso 17 13 77 998 10 O/SO 40.7
Ieri h: 16:50 coperto_pioggia Pioviggine 17 13 77 999 10 O/SO 42.6
Ieri h: 16:20 nuvoloso_piovaschi Rovescio di Pioggia 17 13 77 999 8 O/SO 48.1
Ieri h: 15:50 nuvoloso_piovaschi Rovescio di Pioggia 17 13 77 1000 8 O/SO 46.3
Ieri h: 15:20 nuvoloso_piovaschi Debole Rovescio di Pioggia 16 13 82 1000 8 O/SO 40.7
Ieri h: 14:50 nuvoloso_piovaschi Rovescio di Pioggia 16 12 77 1000 7 O 42.6
Ieri h: 14:20 coperto_pioggia Pioggia Debole 15 12 82 1000 10 SO 27.8
Ieri h: 13:50 coperto_pioggia Pioggia Debole 15 12 82 1000 10 SO 37
Ieri h: 13:20 coperto_pioggia Pioggia Debole 14 12 87 1001 5 SO 33.3
Ieri h: 12:50 coperto_pioggia Pioggia Debole 14 11 82 1001 10 S/SO 29.6
Ieri h: 12:20 coperto_pioggia Pioggia Debole 14 11 82 1002 10 S 31.5
Ieri h: 11:50 coperto_pioggia Pioggia Debole 14 11 82 1003 10 S/SO 31.5
Ieri h: 11:20 coperto_pioggia Pioggia Debole 14 11 82 1003 10 S/SO 31.5
Ieri h: 10:50 molto_nuvoloso Molto Nuvoloso 13 11 87 1003 10 S 29.6
Ieri h: 10:20 coperto_pioggia Pioggia Debole 13 10 81 1004 10 S/SO 25.9
Ieri h: 09:50 coperto_pioggia Pioggia Debole 13 10 81 1004 10 S/SO 25.9
Ieri h: 09:20 coperto_pioggia Pioggia Debole 13 10 81 1004 10 S/SO 31.5
Ieri h: 08:50 nuvoloso Nuvoloso 13 10 81 1004 10 S/SO 27.8
Ieri h: 08:20 coperto_pioggia Pioggia Debole 13 10 81 1005 10 S/SO 31.5
Ieri h: 07:50 molto_nuvoloso Rovescio nelle Vicinanze 13 9 76 1004 10 S/SO 22.2
Ieri h: 07:20 coperto_pioggia Pioggia Debole 13 9 76 1005 10 S/SO 24
Ieri h: 06:50 coperto_pioggia Pioggia Debole 13 9 76 1005 10 S/SO 18.5
Ieri h: 06:20 nuvoloso_piovaschi Rovescio di Pioggia 13 10 81 1005 7 S/SO 20.3
Ieri h: 05:50 molto_nuvoloso Molto Nuvoloso 13 9 76 1005 10 S/SO 24